owner,sensor,date,latitude,longitude,vertical_datum,sea_water_temperature,qcFlag 
DISL,ioos:station:DISL:CATA:1,2018-11-01T03:30:00Z,30.3085,-88.1395,0.0,23.79,11111222 
DISL,ioos:station:DISL:CATA:1,2018-11-01T04:30:00Z,30.3085,-88.1395,0.0,23.84,11111222 
DISL,ioos:station:DISL:CATA:1,2018-11-01T05:30:00Z,30.3085,-88.1395,0.0,23.8,11111222 
DISL,ioos:station:DISL:CATA:1,2018-11-01T06:30:00Z,30.3085,-88.1395,0.0,23.8,11111222 
DISL,ioos:station:DISL:CATA:1,2018-11-01T07:30:00Z,30.3085,-88.1395,0.0,23.68,11111222 
DISL,ioos:station:DISL:CATA:1,2018-11-01T08:30:00Z,30.3085,-88.1395,0.0,23.63,11111222 
DISL,ioos:station:DISL:CATA:1,2018-11-01T09:30:00Z,30.3085,-88.1395,0.0,23.54,11111222 
DISL,ioos:station:DISL:CATA:1,2018-11-01T10:30:00Z,30.3085,-88.1395,0.0,23.39,11111222 
DISL,ioos:station:DISL:CATA:1,2018-11-01T11:30:00Z,30.3085,-88.1395,0.0,23.2,11111222 
DISL,ioos:station:DISL:CATA:1,2018-11-01T12:30:00Z,30.3085,-88.1395,0.0,23.11,11111222 
DISL,ioos:station:DISL:CATA:1,2018-11-01T13:30:00Z,30.3085,-88.1395,0.0,22.98,11111222 
DISL,ioos:station:DISL:CATA:1,2018-11-01T14:30:00Z,30.3085,-88.1395,0.0,22.91,11111222 
DISL,ioos:station:DISL:CATA:1,2018-11-01T15:30:00Z,30.3085,-88.1395,0.0,22.98,11111222 
DISL,ioos:station:DISL:CATA:1,2018-11-01T16:30:00Z,30.3085,-88.1395,0.0,23.01,11111222 
DISL,ioos:station:DISL:CATA:1,2018-11-01T17:30:00Z,30.3085,-88.1395,0.0,23.12,11111222 
DISL,ioos:station:DISL:CATA:1,2018-11-01T18:30:00Z,30.3085,-88.1395,0.0,23.14,11111222 
DISL,ioos:station:DISL:CATA:1,2018-11-01T19:30:00Z,30.3085,-88.1395,0.0,23.11,11111222 
DISL,ioos:station:DISL:CATA:1,2018-11-01T20:30:00Z,30.3085,-88.1395,0.0,23.08,11111222 
DISL,ioos:station:DISL:CATA:1,2018-11-01T21:30:00Z,30.3085,-88.1395,0.0,23.02,11111222 
DISL,ioos:station:DISL:CATA:1,2018-11-01T22:30:00Z,30.3085,-88.1395,0.0,22.98,11111222 
DISL,ioos:station:DISL:CATA:1,2018-11-01T23:30:00Z,30.3085,-88.1395,0.0,22.85,11111222 
DISL,ioos:station:DISL:CATA:1,2018-11-02T00:30:00Z,30.3085,-88.1395,0.0,22.86,11111222 
DISL,ioos:station:DISL:CATA:1,2018-11-02T01:30:00Z,30.3085,-88.1395,0.0,22.79,11111222 
DISL,ioos:station:DISL:CATA:1,2018-11-02T02:30:00Z,30.3085,-88.1395,0.0,22.68,11111222 
DISL,ioos:station:DISL:CATA:1,2018-11-02T03:30:00Z,30.3085,-88.1395,0.0,22.56,11111222 
DISL,ioos:station:DISL:CATA:1,2018-11-02T04:30:00Z,30.3085,-88.1395,0.0,22.48,11111222 
DISL,ioos:station:DISL:CATA:1,2018-11-02T05:30:00Z,30.3085,-88.1395,0.0,22.45,11111222 
DISL,ioos:station:DISL:CATA:1,2018-11-02T06:30:00Z,30.3085,-88.1395,0.0,22.38,11111222 
DISL,ioos:station:DISL:CATA:1,2018-11-02T07:30:00Z,30.3085,-88.1395,0.0,22.5,11111222 
DISL,ioos:station:DISL:CATA:1,2018-11-02T08:30:00Z,30.3085,-88.1395,0.0,22.45,11111222 
DISL,ioos:station:DISL:CATA:1,2018-11-02T09:30:00Z,30.3085,-88.1395,0.0,22.41,11111222 
DISL,ioos:station:DISL:CATA:1,2018-11-02T10:30:00Z,30.3085,-88.1395,0.0,21.94,11111222 
DISL,ioos:station:DISL:CATA:1,2018-11-02T11:30:00Z,30.3085,-88.1395,0.0,21.67,11111222 
DISL,ioos:station:DISL:CATA:1,2018-11-02T12:30:00Z,30.3085,-88.1395,0.0,21.49,11111222 
DISL,ioos:station:DISL:CATA:1,2018-11-02T13:30:00Z,30.3085,-88.1395,0.0,21.21,11111222 
DISL,ioos:station:DISL:CATA:1,2018-11-02T14:30:00Z,30.3085,-88.1395,0.0,21.11,11111222 
DISL,ioos:station:DISL:CATA:1,2018-11-02T15:30:00Z,30.3085,-88.1395,0.0,20.99,11111222 
DISL,ioos:station:DISL:CATA:1,2018-11-02T16:30:00Z,30.3085,-88.1395,0.0,20.92,11111222 
DISL,ioos:station:DISL:CATA:1,2018-11-02T17:30:00Z,30.3085,-88.1395,0.0,21.02,11111222 
DISL,ioos:station:DISL:CATA:1,2018-11-02T18:30:00Z,30.3085,-88.1395,0.0,21.51,11111222 
DISL,ioos:station:DISL:CATA:1,2018-11-02T19:30:00Z,30.3085,-88.1395,0.0,21.73,11111222 
DISL,ioos:station:DISL:CATA:1,2018-11-02T20:30:00Z,30.3085,-88.1395,0.0,21.76,11111222 
DISL,ioos:station:DISL:CATA:1,2018-11-02T21:30:00Z,30.3085,-88.1395,0.0,20.81,11111222 
DISL,ioos:station:DISL:CATA:1,2018-11-02T22:30:00Z,30.3085,-88.1395,0.0,21.0,11111222 
DISL,ioos:station:DISL:CATA:1,2018-11-02T23:30:00Z,30.3085,-88.1395,0.0,21.49,11111222 
DISL,ioos:station:DISL:CATA:1,2018-11-03T00:30:00Z,30.3085,-88.1395,0.0,21.32,11111222 
DISL,ioos:station:DISL:CATA:1,2018-11-03T01:30:00Z,30.3085,-88.1395,0.0,20.24,11111222 
DISL,ioos:station:DISL:CATA:1,2018-11-03T02:30:00Z,30.3085,-88.1395,0.0,20.1,11111222 
DISL,ioos:station:DISL:CATA:1,2018-11-03T03:30:00Z,30.3085,-88.1395,0.0,20.06,11111222 
DISL,ioos:station:DISL:CATA:1,2018-11-03T04:30:00Z,30.3085,-88.1395,0.0,19.91,11111222 
DISL,ioos:station:DISL:CATA:1,2018-11-03T05:30:00Z,30.3085,-88.1395,0.0,19.82,11111222 
DISL,ioos:station:DISL:CATA:1,2018-11-03T06:30:00Z,30.3085,-88.1395,0.0,19.81,11111222 
DISL,ioos:station:DISL:CATA:1,2018-11-03T07:30:00Z,30.3085,-88.1395,0.0,19.81,11111222 
DISL,ioos:station:DISL:CATA:1,2018-11-03T08:30:00Z,30.3085,-88.1395,0.0,19.74,11111222 
DISL,ioos:station:DISL:CATA:1,2018-11-03T09:30:00Z,30.3085,-88.1395,0.0,19.75,11111222 
DISL,ioos:station:DISL:CATA:1,2018-11-03T10:30:00Z,30.3085,-88.1395,0.0,19.7,11111222 
DISL,ioos:station:DISL:CATA:1,2018-11-03T11:30:00Z,30.3085,-88.1395,0.0,19.64,11111222 
DISL,ioos:station:DISL:CATA:1,2018-11-03T12:30:00Z,30.3085,-88.1395,0.0,19.57,11111222 
DISL,ioos:station:DISL:CATA:1,2018-11-03T13:30:00Z,30.3085,-88.1395,0.0,19.38,11111222 
DISL,ioos:station:DISL:CATA:1,2018-11-03T14:30:00Z,30.3085,-88.1395,0.0,19.41,11111222 
DISL,ioos:station:DISL:CATA:1,2018-11-03T15:30:00Z,30.3085,-88.1395,0.0,19.47,11111222 
DISL,ioos:station:DISL:CATA:1,2018-11-03T16:30:00Z,30.3085,-88.1395,0.0,19.47,11111222 
DISL,ioos:station:DISL:CATA:1,2018-11-03T17:30:00Z,30.3085,-88.1395,0.0,19.49,11111222 
DISL,ioos:station:DISL:CATA:1,2018-11-03T18:30:00Z,30.3085,-88.1395,0.0,20.19,11111222 
DISL,ioos:station:DISL:CATA:1,2018-11-03T19:30:00Z,30.3085,-88.1395,0.0,20.79,11111222 
DISL,ioos:station:DISL:CATA:1,2018-11-03T20:30:00Z,30.3085,-88.1395,0.0,20.86,11111222 
DISL,ioos:station:DISL:CATA:1,2018-11-03T21:30:00Z,30.3085,-88.1395,0.0,21.24,11111222 
DISL,ioos:station:DISL:CATA:1,2018-11-03T22:30:00Z,30.3085,-88.1395,0.0,21.53,11111222 
DISL,ioos:station:DISL:CATA:1,2018-11-03T23:30:00Z,30.3085,-88.1395,0.0,21.45,11111222 
DISL,ioos:station:DISL:CATA:1,2018-11-04T00:30:00Z,30.3085,-88.1395,0.0,21.28,11111222 
DISL,ioos:station:DISL:CATA:1,2018-11-04T01:30:00Z,30.3085,-88.1395,0.0,21.15,11111222 
DISL,ioos:station:DISL:CATA:1,2018-11-04T02:30:00Z,30.3085,-88.1395,0.0,21.0,11111222 
DISL,ioos:station:DISL:CATA:1,2018-11-04T03:30:00Z,30.3085,-88.1395,0.0,20.91,11111222 
DISL,ioos:station:DISL:CATA:1,2018-11-04T04:30:00Z,30.3085,-88.1395,0.0,20.8,11111222 
DISL,ioos:station:DISL:CATA:1,2018-11-04T05:30:00Z,30.3085,-88.1395,0.0,20.78,11111222 
DISL,ioos:station:DISL:CATA:1,2018-11-04T06:30:00Z,30.3085,-88.1395,0.0,20.65,11111222 
DISL,ioos:station:DISL:CATA:1,2018-11-04T08:30:00Z,30.3085,-88.1395,0.0,20.64,11111222 
DISL,ioos:station:DISL:CATA:1,2018-11-04T09:30:00Z,30.3085,-88.1395,0.0,20.37,11111222 
DISL,ioos:station:DISL:CATA:1,2018-11-04T10:30:00Z,30.3085,-88.1395,0.0,20.51,11111222 
DISL,ioos:station:DISL:CATA:1,2018-11-04T11:30:00Z,30.3085,-88.1395,0.0,20.49,11111222 
DISL,ioos:station:DISL:CATA:1,2018-11-04T12:30:00Z,30.3085,-88.1395,0.0,20.27,11111222 
DISL,ioos:station:DISL:CATA:1,2018-11-04T13:30:00Z,30.3085,-88.1395,0.0,20.35,11111222 
DISL,ioos:station:DISL:CATA:1,2018-11-04T14:30:00Z,30.3085,-88.1395,0.0,20.35,11111222 
DISL,ioos:station:DISL:CATA:1,2018-11-04T15:30:00Z,30.3085,-88.1395,0.0,20.43,11111222 
DISL,ioos:station:DISL:CATA:1,2018-11-04T16:30:00Z,30.3085,-88.1395,0.0,20.61,11111222 
DISL,ioos:station:DISL:CATA:1,2018-11-04T17:30:00Z,30.3085,-88.1395,0.0,20.79,11111222 
DISL,ioos:station:DISL:CATA:1,2018-11-04T18:30:00Z,30.3085,-88.1395,0.0,20.82,11111222 
DISL,ioos:station:DISL:CATA:1,2018-11-04T19:30:00Z,30.3085,-88.1395,0.0,20.96,11111222 
DISL,ioos:station:DISL:CATA:1,2018-11-04T20:30:00Z,30.3085,-88.1395,0.0,21.09,11111222 
DISL,ioos:station:DISL:CATA:1,2018-11-04T21:30:00Z,30.3085,-88.1395,0.0,21.11,11111222 
DISL,ioos:station:DISL:CATA:1,2018-11-04T22:30:00Z,30.3085,-88.1395,0.0,21.08,11111222 
DISL,ioos:station:DISL:CATA:1,2018-11-04T23:30:00Z,30.3085,-88.1395,0.0,21.05,11111222 
DISL,ioos:station:DISL:CATA:1,2018-11-05T00:30:00Z,30.3085,-88.1395,0.0,21.09,11111222 
DISL,ioos:station:DISL:CATA:1,2018-11-05T01:30:00Z,30.3085,-88.1395,0.0,21.08,11111222 
DISL,ioos:station:DISL:CATA:1,2018-11-05T02:30:00Z,30.3085,-88.1395,0.0,21.13,11111222 
DISL,ioos:station:DISL:CATA:1,2018-11-05T03:30:00Z,30.3085,-88.1395,0.0,21.13,11111222 
DISL,ioos:station:DISL:CATA:1,2018-11-05T04:30:00Z,30.3085,-88.1395,0.0,21.14,11111222 
DISL,ioos:station:DISL:CATA:1,2018-11-05T05:30:00Z,30.3085,-88.1395,0.0,21.11,11111222 
DISL,ioos:station:DISL:CATA:1,2018-11-05T06:30:00Z,30.3085,-88.1395,0.0,21.04,11111222 
DISL,ioos:station:DISL:CATA:1,2018-11-05T07:30:00Z,30.3085,-88.1395,0.0,20.96,11111222 
DISL,ioos:station:DISL:CATA:1,2018-11-05T08:30:00Z,30.3085,-88.1395,0.0,20.86,11111222 
DISL,ioos:station:DISL:CATA:1,2018-11-05T09:30:00Z,30.3085,-88.1395,0.0,20.81,11111222 
DISL,ioos:station:DISL:CATA:1,2018-11-05T10:30:00Z,30.3085,-88.1395,0.0,20.81,11111222 
DISL,ioos:station:DISL:CATA:1,2018-11-05T11:30:00Z,30.3085,-88.1395,0.0,20.8,11111222 
DISL,ioos:station:DISL:CATA:1,2018-11-05T12:30:00Z,30.3085,-88.1395,0.0,20.81,11111222 
DISL,ioos:station:DISL:CATA:1,2018-11-05T13:30:00Z,30.3085,-88.1395,0.0,20.8,11111222 
DISL,ioos:station:DISL:CATA:1,2018-11-05T14:30:00Z,30.3085,-88.1395,0.0,20.8,11111222 
DISL,ioos:station:DISL:CATA:1,2018-11-05T15:30:00Z,30.3085,-88.1395,0.0,20.81,11111222 
DISL,ioos:station:DISL:CATA:1,2018-11-05T16:30:00Z,30.3085,-88.1395,0.0,20.9,11111222 
DISL,ioos:station:DISL:CATA:1,2018-11-05T17:30:00Z,30.3085,-88.1395,0.0,21.04,11111222 
DISL,ioos:station:DISL:CATA:1,2018-11-05T18:30:00Z,30.3085,-88.1395,0.0,21.21,11111222 
DISL,ioos:station:DISL:CATA:1,2018-11-05T19:30:00Z,30.3085,-88.1395,0.0,21.3,11111222 
DISL,ioos:station:DISL:CATA:1,2018-11-05T20:30:00Z,30.3085,-88.1395,0.0,21.23,11111222 
DISL,ioos:station:DISL:CATA:1,2018-11-05T21:30:00Z,30.3085,-88.1395,0.0,22.19,11111222 
DISL,ioos:station:DISL:CATA:1,2018-11-05T22:30:00Z,30.3085,-88.1395,0.0,22.12,11111222 
DISL,ioos:station:DISL:CATA:1,2018-11-05T23:30:00Z,30.3085,-88.1395,0.0,22.19,11111222 
DISL,ioos:station:DISL:CATA:1,2018-11-06T00:30:00Z,30.3085,-88.1395,0.0,22.18,11111222 
DISL,ioos:station:DISL:CATA:1,2018-11-06T01:30:00Z,30.3085,-88.1395,0.0,22.13,11111222 
DISL,ioos:station:DISL:CATA:1,2018-11-06T02:30:00Z,30.3085,-88.1395,0.0,22.11,11111222 
DISL,ioos:station:DISL:CATA:1,2018-11-06T03:30:00Z,30.3085,-88.1395,0.0,22.1,11111222 
DISL,ioos:station:DISL:CATA:1,2018-11-06T04:30:00Z,30.3085,-88.1395,0.0,22.13,11111222 
DISL,ioos:station:DISL:CATA:1,2018-11-06T05:30:00Z,30.3085,-88.1395,0.0,22.09,11111222 
DISL,ioos:station:DISL:CATA:1,2018-11-06T06:30:00Z,30.3085,-88.1395,0.0,22.1,11111222 
DISL,ioos:station:DISL:CATA:1,2018-11-06T07:30:00Z,30.3085,-88.1395,0.0,22.07,11111222 
DISL,ioos:station:DISL:CATA:1,2018-11-06T08:30:00Z,30.3085,-88.1395,0.0,22.13,11111222 
DISL,ioos:station:DISL:CATA:1,2018-11-06T09:30:00Z,30.3085,-88.1395,0.0,21.96,11111222 
DISL,ioos:station:DISL:CATA:1,2018-11-06T10:30:00Z,30.3085,-88.1395,0.0,21.9,11111222 
DISL,ioos:station:DISL:CATA:1,2018-11-06T11:30:00Z,30.3085,-88.1395,0.0,21.88,11111222 
DISL,ioos:station:DISL:CATA:1,2018-11-06T12:30:00Z,30.3085,-88.1395,0.0,21.89,11111222 
DISL,ioos:station:DISL:CATA:1,2018-11-06T13:30:00Z,30.3085,-88.1395,0.0,21.78,11111222 
DISL,ioos:station:DISL:CATA:1,2018-11-06T14:30:00Z,30.3085,-88.1395,0.0,21.78,11111222 
DISL,ioos:station:DISL:CATA:1,2018-11-06T15:30:00Z,30.3085,-88.1395,0.0,22.17,11111222 
DISL,ioos:station:DISL:CATA:1,2018-11-06T16:30:00Z,30.3085,-88.1395,0.0,22.14,11111222 
DISL,ioos:station:DISL:CATA:1,2018-11-06T17:30:00Z,30.3085,-88.1395,0.0,22.13,11111222 
DISL,ioos:station:DISL:CATA:1,2018-11-06T18:30:00Z,30.3085,-88.1395,0.0,22.26,11111222 
DISL,ioos:station:DISL:CATA:1,2018-11-06T19:30:00Z,30.3085,-88.1395,0.0,22.38,11111222 
DISL,ioos:station:DISL:CATA:1,2018-11-06T20:30:00Z,30.3085,-88.1395,0.0,22.5,11111222 
DISL,ioos:station:DISL:CATA:1,2018-11-06T21:30:00Z,30.3085,-88.1395,0.0,22.42,11111222 
DISL,ioos:station:DISL:CATA:1,2018-11-06T22:30:00Z,30.3085,-88.1395,0.0,22.48,11111222 
DISL,ioos:station:DISL:CATA:1,2018-11-06T23:30:00Z,30.3085,-88.1395,0.0,22.44,11111222 
DISL,ioos:station:DISL:CATA:1,2018-11-07T00:30:00Z,30.3085,-88.1395,0.0,22.46,11111222 
DISL,ioos:station:DISL:CATA:1,2018-11-07T01:30:00Z,30.3085,-88.1395,0.0,22.5,11111222 
DISL,ioos:station:DISL:CATA:1,2018-11-07T02:30:00Z,30.3085,-88.1395,0.0,22.52,11111222 
DISL,ioos:station:DISL:CATA:1,2018-11-07T03:30:00Z,30.3085,-88.1395,0.0,22.52,11111222 
DISL,ioos:station:DISL:CATA:1,2018-11-07T04:30:00Z,30.3085,-88.1395,0.0,22.49,11111222 
DISL,ioos:station:DISL:CATA:1,2018-11-07T05:30:00Z,30.3085,-88.1395,0.0,22.36,11111222 
DISL,ioos:station:DISL:CATA:1,2018-11-07T06:30:00Z,30.3085,-88.1395,0.0,22.37,11111222 
DISL,ioos:station:DISL:CATA:1,2018-11-07T07:30:00Z,30.3085,-88.1395,0.0,22.23,11111222 
DISL,ioos:station:DISL:CATA:1,2018-11-07T08:30:00Z,30.3085,-88.1395,0.0,21.99,11111222 
DISL,ioos:station:DISL:CATA:1,2018-11-07T09:30:00Z,30.3085,-88.1395,0.0,21.9,11111222 
DISL,ioos:station:DISL:CATA:1,2018-11-07T10:30:00Z,30.3085,-88.1395,0.0,21.88,11111222 
DISL,ioos:station:DISL:CATA:1,2018-11-07T11:30:00Z,30.3085,-88.1395,0.0,21.9,11111222 
DISL,ioos:station:DISL:CATA:1,2018-11-07T12:30:00Z,30.3085,-88.1395,0.0,21.91,11111222 
DISL,ioos:station:DISL:CATA:1,2018-11-07T13:30:00Z,30.3085,-88.1395,0.0,21.89,11111222 
DISL,ioos:station:DISL:CATA:1,2018-11-07T14:30:00Z,30.3085,-88.1395,0.0,21.91,11111222 
DISL,ioos:station:DISL:CATA:1,2018-11-07T15:30:00Z,30.3085,-88.1395,0.0,21.93,11111222 
DISL,ioos:station:DISL:CATA:1,2018-11-07T16:30:00Z,30.3085,-88.1395,0.0,22.34,11111222 
DISL,ioos:station:DISL:CATA:1,2018-11-07T17:30:00Z,30.3085,-88.1395,0.0,22.6,11111222 
DISL,ioos:station:DISL:CATA:1,2018-11-07T18:30:00Z,30.3085,-88.1395,0.0,22.67,11111222 
DISL,ioos:station:DISL:CATA:1,2018-11-07T19:30:00Z,30.3085,-88.1395,0.0,22.93,11111222 
DISL,ioos:station:DISL:CATA:1,2018-11-07T20:30:00Z,30.3085,-88.1395,0.0,23.12,11111222 
DISL,ioos:station:DISL:CATA:1,2018-11-07T21:30:00Z,30.3085,-88.1395,0.0,23.14,11111222 
DISL,ioos:station:DISL:CATA:1,2018-11-07T22:30:00Z,30.3085,-88.1395,0.0,23.16,11111222 
DISL,ioos:station:DISL:CATA:1,2018-11-07T23:30:00Z,30.3085,-88.1395,0.0,23.11,11111222 
DISL,ioos:station:DISL:CATA:1,2018-11-08T00:30:00Z,30.3085,-88.1395,0.0,23.03,11111222 
DISL,ioos:station:DISL:CATA:1,2018-11-08T01:30:00Z,30.3085,-88.1395,0.0,22.78,11111222 
DISL,ioos:station:DISL:CATA:1,2018-11-08T02:30:00Z,30.3085,-88.1395,0.0,22.48,11111222 
DISL,ioos:station:DISL:CATA:1,2018-11-08T03:30:00Z,30.3085,-88.1395,0.0,22.37,11111222 
DISL,ioos:station:DISL:CATA:1,2018-11-08T04:30:00Z,30.3085,-88.1395,0.0,22.2,11111222 
DISL,ioos:station:DISL:CATA:1,2018-11-08T05:30:00Z,30.3085,-88.1395,0.0,22.16,11111222 
DISL,ioos:station:DISL:CATA:1,2018-11-08T06:30:00Z,30.3085,-88.1395,0.0,22.02,11111222 
DISL,ioos:station:DISL:CATA:1,2018-11-08T07:30:00Z,30.3085,-88.1395,0.0,22.18,11111222 
DISL,ioos:station:DISL:CATA:1,2018-11-08T08:30:00Z,30.3085,-88.1395,0.0,22.57,11111222 
DISL,ioos:station:DISL:CATA:1,2018-11-08T09:30:00Z,30.3085,-88.1395,0.0,22.71,11111222 
DISL,ioos:station:DISL:CATA:1,2018-11-08T10:30:00Z,30.3085,-88.1395,0.0,22.62,11111222 
DISL,ioos:station:DISL:CATA:1,2018-11-08T11:30:00Z,30.3085,-88.1395,0.0,22.3,11111222 
DISL,ioos:station:DISL:CATA:1,2018-11-08T12:30:00Z,30.3085,-88.1395,0.0,22.26,11111222 
DISL,ioos:station:DISL:CATA:1,2018-11-08T13:30:00Z,30.3085,-88.1395,0.0,22.23,11111222 
DISL,ioos:station:DISL:CATA:1,2018-11-08T14:30:00Z,30.3085,-88.1395,0.0,22.2,11111222 
DISL,ioos:station:DISL:CATA:1,2018-11-08T15:30:00Z,30.3085,-88.1395,0.0,22.37,11111222 
DISL,ioos:station:DISL:CATA:1,2018-11-08T16:30:00Z,30.3085,-88.1395,0.0,22.51,11111222 
DISL,ioos:station:DISL:CATA:1,2018-11-08T17:30:00Z,30.3085,-88.1395,0.0,22.58,11111222 
DISL,ioos:station:DISL:CATA:1,2018-11-08T18:30:00Z,30.3085,-88.1395,0.0,22.61,11111222 
DISL,ioos:station:DISL:CATA:1,2018-11-08T19:30:00Z,30.3085,-88.1395,0.0,22.99,11111222 
DISL,ioos:station:DISL:CATA:1,2018-11-08T20:30:00Z,30.3085,-88.1395,0.0,23.25,11111222 
DISL,ioos:station:DISL:CATA:1,2018-11-08T21:30:00Z,30.3085,-88.1395,0.0,23.1,11111222 
DISL,ioos:station:DISL:CATA:1,2018-11-08T22:30:00Z,30.3085,-88.1395,0.0,22.95,11111222 
DISL,ioos:station:DISL:CATA:1,2018-11-08T23:30:00Z,30.3085,-88.1395,0.0,22.92,11111222 
DISL,ioos:station:DISL:CATA:1,2018-11-09T00:30:00Z,30.3085,-88.1395,0.0,22.7,11111222 
DISL,ioos:station:DISL:CATA:1,2018-11-09T01:30:00Z,30.3085,-88.1395,0.0,22.7,11111222 
DISL,ioos:station:DISL:CATA:1,2018-11-09T02:30:00Z,30.3085,-88.1395,0.0,22.49,11111222 
DISL,ioos:station:DISL:CATA:1,2018-11-09T03:30:00Z,30.3085,-88.1395,0.0,22.44,11111222 
DISL,ioos:station:DISL:CATA:1,2018-11-09T04:30:00Z,30.3085,-88.1395,0.0,22.28,11111222 
DISL,ioos:station:DISL:CATA:1,2018-11-09T05:30:00Z,30.3085,-88.1395,0.0,22.27,11111222 
DISL,ioos:station:DISL:CATA:1,2018-11-09T06:30:00Z,30.3085,-88.1395,0.0,22.25,11111222 
DISL,ioos:station:DISL:CATA:1,2018-11-09T07:30:00Z,30.3085,-88.1395,0.0,22.24,11111222 
DISL,ioos:station:DISL:CATA:1,2018-11-09T08:30:00Z,30.3085,-88.1395,0.0,22.31,11111222 
DISL,ioos:station:DISL:CATA:1,2018-11-09T09:30:00Z,30.3085,-88.1395,0.0,22.87,11111222 
DISL,ioos:station:DISL:CATA:1,2018-11-09T10:30:00Z,30.3085,-88.1395,0.0,22.57,11111222 
DISL,ioos:station:DISL:CATA:1,2018-11-09T11:30:00Z,30.3085,-88.1395,0.0,22.53,11111222 
DISL,ioos:station:DISL:CATA:1,2018-11-09T12:30:00Z,30.3085,-88.1395,0.0,22.52,11111222 
DISL,ioos:station:DISL:CATA:1,2018-11-09T13:30:00Z,30.3085,-88.1395,0.0,22.49,11111222 
DISL,ioos:station:DISL:CATA:1,2018-11-09T14:30:00Z,30.3085,-88.1395,0.0,22.55,11111222 
DISL,ioos:station:DISL:CATA:1,2018-11-09T15:30:00Z,30.3085,-88.1395,0.0,22.62,11111222 
DISL,ioos:station:DISL:CATA:1,2018-11-09T16:30:00Z,30.3085,-88.1395,0.0,22.7,11111222 
DISL,ioos:station:DISL:CATA:1,2018-11-09T17:30:00Z,30.3085,-88.1395,0.0,22.82,11111222 
DISL,ioos:station:DISL:CATA:1,2018-11-09T18:30:00Z,30.3085,-88.1395,0.0,23.06,11111222 
DISL,ioos:station:DISL:CATA:1,2018-11-09T19:30:00Z,30.3085,-88.1395,0.0,23.38,11111222 
DISL,ioos:station:DISL:CATA:1,2018-11-09T20:30:00Z,30.3085,-88.1395,0.0,23.18,11111222 
DISL,ioos:station:DISL:CATA:1,2018-11-09T21:30:00Z,30.3085,-88.1395,0.0,22.93,11111222 
DISL,ioos:station:DISL:CATA:1,2018-11-09T22:30:00Z,30.3085,-88.1395,0.0,23.13,11111222 
DISL,ioos:station:DISL:CATA:1,2018-11-09T23:30:00Z,30.3085,-88.1395,0.0,22.75,11111222 
DISL,ioos:station:DISL:CATA:1,2018-11-10T00:30:00Z,30.3085,-88.1395,0.0,22.75,11111222 
DISL,ioos:station:DISL:CATA:1,2018-11-10T01:30:00Z,30.3085,-88.1395,0.0,22.43,11111222 
DISL,ioos:station:DISL:CATA:1,2018-11-10T02:30:00Z,30.3085,-88.1395,0.0,22.18,11111222 
DISL,ioos:station:DISL:CATA:1,2018-11-10T03:30:00Z,30.3085,-88.1395,0.0,21.97,11111222 
DISL,ioos:station:DISL:CATA:1,2018-11-10T04:30:00Z,30.3085,-88.1395,0.0,21.09,11111222 
DISL,ioos:station:DISL:CATA:1,2018-11-10T05:30:00Z,30.3085,-88.1395,0.0,20.89,11111222 
DISL,ioos:station:DISL:CATA:1,2018-11-10T06:30:00Z,30.3085,-88.1395,0.0,20.87,11111222 
DISL,ioos:station:DISL:CATA:1,2018-11-10T07:30:00Z,30.3085,-88.1395,0.0,20.92,11111222 
DISL,ioos:station:DISL:CATA:1,2018-11-10T08:30:00Z,30.3085,-88.1395,0.0,20.77,11111222 
DISL,ioos:station:DISL:CATA:1,2018-11-10T09:30:00Z,30.3085,-88.1395,0.0,20.67,11111222 
DISL,ioos:station:DISL:CATA:1,2018-11-10T10:30:00Z,30.3085,-88.1395,0.0,20.31,11111222 
DISL,ioos:station:DISL:CATA:1,2018-11-10T11:30:00Z,30.3085,-88.1395,0.0,19.89,11111222 
DISL,ioos:station:DISL:CATA:1,2018-11-10T12:30:00Z,30.3085,-88.1395,0.0,19.64,11111222 
DISL,ioos:station:DISL:CATA:1,2018-11-10T13:30:00Z,30.3085,-88.1395,0.0,19.38,11111222 
DISL,ioos:station:DISL:CATA:1,2018-11-10T14:30:00Z,30.3085,-88.1395,0.0,19.16,11111222 
DISL,ioos:station:DISL:CATA:1,2018-11-10T15:30:00Z,30.3085,-88.1395,0.0,18.92,11111222 
DISL,ioos:station:DISL:CATA:1,2018-11-10T16:30:00Z,30.3085,-88.1395,0.0,18.89,11111222 
DISL,ioos:station:DISL:CATA:1,2018-11-10T17:30:00Z,30.3085,-88.1395,0.0,18.19,11111222 
DISL,ioos:station:DISL:CATA:1,2018-11-10T18:30:00Z,30.3085,-88.1395,0.0,17.83,11111222 
DISL,ioos:station:DISL:CATA:1,2018-11-10T19:30:00Z,30.3085,-88.1395,0.0,18.27,11111222 
DISL,ioos:station:DISL:CATA:1,2018-11-10T20:30:00Z,30.3085,-88.1395,0.0,17.6,11111222 
DISL,ioos:station:DISL:CATA:1,2018-11-10T21:30:00Z,30.3085,-88.1395,0.0,17.77,11111222 
DISL,ioos:station:DISL:CATA:1,2018-11-10T22:30:00Z,30.3085,-88.1395,0.0,17.75,11111222 
DISL,ioos:station:DISL:CATA:1,2018-11-11T01:30:00Z,30.3085,-88.1395,0.0,17.49,11111222 
DISL,ioos:station:DISL:CATA:1,2018-11-11T02:30:00Z,30.3085,-88.1395,0.0,17.18,11111222 
DISL,ioos:station:DISL:CATA:1,2018-11-11T03:30:00Z,30.3085,-88.1395,0.0,16.96,11111222 
DISL,ioos:station:DISL:CATA:1,2018-11-11T04:30:00Z,30.3085,-88.1395,0.0,16.96,11111222 
DISL,ioos:station:DISL:CATA:1,2018-11-11T05:30:00Z,30.3085,-88.1395,0.0,16.95,11111222 
DISL,ioos:station:DISL:CATA:1,2018-11-11T06:30:00Z,30.3085,-88.1395,0.0,16.77,11111222 
DISL,ioos:station:DISL:CATA:1,2018-11-11T07:30:00Z,30.3085,-88.1395,0.0,16.91,11111222 
DISL,ioos:station:DISL:CATA:1,2018-11-11T08:30:00Z,30.3085,-88.1395,0.0,16.23,11111222 
DISL,ioos:station:DISL:CATA:1,2018-11-11T09:30:00Z,30.3085,-88.1395,0.0,14.49,11111222 
DISL,ioos:station:DISL:CATA:1,2018-11-11T10:30:00Z,30.3085,-88.1395,0.0,15.22,11111222 
DISL,ioos:station:DISL:CATA:1,2018-11-11T11:30:00Z,30.3085,-88.1395,0.0,15.48,11111222 
DISL,ioos:station:DISL:CATA:1,2018-11-11T12:30:00Z,30.3085,-88.1395,0.0,15.84,11111222 
DISL,ioos:station:DISL:CATA:1,2018-11-11T13:30:00Z,30.3085,-88.1395,0.0,15.91,11111222 
DISL,ioos:station:DISL:CATA:1,2018-11-11T14:30:00Z,30.3085,-88.1395,0.0,16.17,11111222 
DISL,ioos:station:DISL:CATA:1,2018-11-11T15:30:00Z,30.3085,-88.1395,0.0,16.41,11111222 
DISL,ioos:station:DISL:CATA:1,2018-11-11T16:30:00Z,30.3085,-88.1395,0.0,16.59,11111222 
DISL,ioos:station:DISL:CATA:1,2018-11-11T17:30:00Z,30.3085,-88.1395,0.0,16.82,11111222 
DISL,ioos:station:DISL:CATA:1,2018-11-11T18:30:00Z,30.3085,-88.1395,0.0,16.96,11111222 
DISL,ioos:station:DISL:CATA:1,2018-11-11T19:30:00Z,30.3085,-88.1395,0.0,17.02,11111222 
DISL,ioos:station:DISL:CATA:1,2018-11-11T20:30:00Z,30.3085,-88.1395,0.0,17.21,11111222 
DISL,ioos:station:DISL:CATA:1,2018-11-11T21:30:00Z,30.3085,-88.1395,0.0,17.55,11111222 
DISL,ioos:station:DISL:CATA:1,2018-11-11T22:30:00Z,30.3085,-88.1395,0.0,17.37,11111222 
DISL,ioos:station:DISL:CATA:1,2018-11-11T23:30:00Z,30.3085,-88.1395,0.0,16.71,11111222 
DISL,ioos:station:DISL:CATA:1,2018-11-12T00:30:00Z,30.3085,-88.1395,0.0,16.34,11111222 
DISL,ioos:station:DISL:CATA:1,2018-11-12T01:30:00Z,30.3085,-88.1395,0.0,15.63,11111222 
DISL,ioos:station:DISL:CATA:1,2018-11-12T02:30:00Z,30.3085,-88.1395,0.0,15.88,11111222 
DISL,ioos:station:DISL:CATA:1,2018-11-12T03:30:00Z,30.3085,-88.1395,0.0,16.02,11111222 
DISL,ioos:station:DISL:CATA:1,2018-11-12T04:30:00Z,30.3085,-88.1395,0.0,15.78,11111222 
DISL,ioos:station:DISL:CATA:1,2018-11-12T05:30:00Z,30.3085,-88.1395,0.0,15.89,11111222 
DISL,ioos:station:DISL:CATA:1,2018-11-12T06:30:00Z,30.3085,-88.1395,0.0,16.2,11111222 
DISL,ioos:station:DISL:CATA:1,2018-11-12T07:30:00Z,30.3085,-88.1395,0.0,16.32,11111222 
DISL,ioos:station:DISL:CATA:1,2018-11-12T08:30:00Z,30.3085,-88.1395,0.0,16.28,11111222 
DISL,ioos:station:DISL:CATA:1,2018-11-12T09:30:00Z,30.3085,-88.1395,0.0,15.55,11111222 
DISL,ioos:station:DISL:CATA:1,2018-11-12T10:30:00Z,30.3085,-88.1395,0.0,16.36,11111222 
DISL,ioos:station:DISL:CATA:1,2018-11-12T11:30:00Z,30.3085,-88.1395,0.0,16.8,11111222 
DISL,ioos:station:DISL:CATA:1,2018-11-12T12:30:00Z,30.3085,-88.1395,0.0,17.0,11111222 
DISL,ioos:station:DISL:CATA:1,2018-11-12T13:30:00Z,30.3085,-88.1395,0.0,17.04,11111222 